Temp
-32 -32 -32 -32 -32 -33 -33 -33 -33 -33 -33 -33 -33 -33 -33 -33 -33 -34 -34 -34 -34 -33 -33 -33 -33 -32 -32 -31 -31 -30 -30 -29 -28 -28 -28 -27 -26 -26 -25 -25 -24 -24 -24 -23 -23 -24 -24 -24 -24 -24 -25 -24 -24 -24 -24 -24 -24 -24 -24 -24 -24 -24 -24
-32 -32 -32 -32 -32 -33 -33 -33 -33 -33 -33 -33 -33 -33 -33 -33 -33 -33 -34 -34 -34 -34 -34 -34 -33 -33 -33 -32 -32 -31 -31 -30 -30 -29 -29 -29 -28 -28 -27 -26 -25 -24 -24 -24 -24 -24 -24 -24 -25 -25 -25 -25 -24 -24 -24 -24 -24 -24 -24 -24 -24 -24 -24
-32 -32 -32 -32 -32 -33 -33 -33 -33 -33 -33 -33 -34 -34 -34 -33 -33 -33 -34 -34 -34 -34 -34 -34 -34 -34 -34 -33 -33 -33 -32 -32 -31 -31 -30 -30 -29 -29 -28 -28 -27 -26 -25 -25 -24 -24 -24 -25 -25 -25 -25 -25 -24 -24 -24 -24 -24 -24 -24 -24 -24 -24 -24
-32 -32 -32 -32 -32 -33 -33 -33 -33 -33 -33 -33 -34 -34 -33 -33 -33 -33 -33 -34 -34 -34 -34 -34 -34 -34 -34 -34 -34 -33 -33 -33 -32 -32 -31 -31 -30 -30 -29 -29 -29 -28 -26 -26 -25 -25 -24 -24 -25 -25 -25 -25 -24 -24 -24 -24 -24 -24 -24 -24 -24 -24 -24
-32 -32 -32 -32 -32 -33 -33 -33 -33 -33 -33 -33 -33 -33 -33 -33 -33 -33 -33 -33 -34 -34 -34 -34 -34 -34 -34 -34 -34 -34 -34 -34 -33 -33 -32 -32 -31 -31 -30 -30 -29 -29 -28 -27 -27 -26 -25 -25 -25 -25 -25 -25 -25 -24 -24 -24 -25 -24 -24 -24 -24 -24 -24
-32 -32 -32 -32 -33 -33 -33 -33 -33 -33 -33 -33 -33 -33 -33 -33 -33 -33 -33 -33 -33 -34 -34 -34 -34 -34 -34 -34 -34 -34 -34 -34 -34 -34 -33 -33 -32 -32 -31 -31 -30 -30 -30 -29 -28 -27 -27 -26 -26 -25 -26 -26 -25 -25 -24 -24 -25 -25 -24 -25 -25 -25 -25
-32 -32 -32 -32 -33 -33 -33 -33 -33 -33 -33 -33 -33 -33 -33 -33 -33 -33 -33 -33 -33 -33 -34 -34 -34 -34 -34 -34 -34 -34 -34 -34 -34 -34 -34 -33 -33 -32 -32 -31 -31 -31 -30 -30 -30 -29 -28 -27 -27 -26 -26 -26 -26 -25 -25 -25 -25 -25 -25 -25 -25 -25 -25
-32 -32 -32 -33 -33 -33 -33 -33 -33 -33 -33 -33 -34 -34 -33 -33 -33 -33 -33 -33 -33 -33 -34 -34 -34 -34 -34 -34 -34 -34 -34 -35 -35 -35 -34 -34 -33 -33 -32 -32 -31 -31 -31 -31 -30 -30 -29 -29 -28 -27 -27 -27 -26 -26 -25 -25 -25 -25 -25 -25 -25 -25 -25
-32 -33 -33 -33 -33 -33 -33 -33 -34 -34 -34 -34 -34 -33 -33 -33 -33 -33 -33 -33 -33 -33 -33 -34 -34 -34 -34 -34 -34 -34 -34 -34 -34 -34 -34 -34 -34 -33 -33 -32 -32 -32 -31 -31 -31 -30 -30 -29 -29 -28 -28 -27 -27 -27 -26 -26 -26 -26 -26 -26 -25 -25 -25
-33 -33 -33 -33 -33 -33 -33 -34 -34 -34 -34 -34 -33 -33 -33 -33 -33 -33 -33 -33 -33 -33 -33 -33 -34 -34 -34 -34 -34 -34 -34 -34 -34 -34 -34 -34 -34 -33 -33 -33 -32 -32 -32 -31 -31 -31 -30 -30 -29 -28 -28 -28 -28 -28 -27 -27 -26 -26 -26 -26 -25 -25 -25
-33 -33 -33 -33 -33 -34 -34 -34 -34 -34 -34 -34 -33 -33 -33 -33 -33 -33 -33 -33 -33 -33 -33 -33 -34 -34 -34 -34 -34 -34 -34 -34 -34 -34 -34 -34 -34 -34 -33 -33 -33 -32 -32 -32 -31 -31 -31 -30 -30 -29 -29 -28 -28 -28 -28 -28 -27 -27 -27 -26 -26 -25 -25
-33 -33 -33 -33 -34 -34 -34 -34 -34 -34 -33 -33 -33 -33 -33 -33 -33 -33 -33 -33 -33 -33 -33 -33 -33 -33 -33 -34 -34 -34 -34 -34 -34 -34 -34 -34 -34 -34 -34 -33 -33 -33 -32 -32 -32 -31 -31 -31 -30 -30 -29 -29 -28 -28 -28 -28 -28 -27 -27 -27 -26 -26 -26
-34 -34 -34 -34 -34 -33 -33 -33 -33 -33 -33 -33 -33 -33 -33 -33 -33 -33 -33 -33 -33 -33 -33 -33 -33 -33 -33 -33 -33 -34 -34 -33 -33 -34 -34 -34 -34 -34 -34 -34 -33 -33 -33 -32 -32 -32 -31 -31 -31 -30 -30 -29 -29 -29 -29 -29 -28 -28 -27 -27 -27 -26 -26
-34 -34 -34 -34 -34 -34 -33 -33 -33 -33 -33 -33 -33 -33 -33 -33 -33 -33 -33 -33 -33 -33 -33 -33 -33 -33 -33 -33 -33 -33 -33 -33 -33 -34 -34 -34 -34 -34 -34 -34 -33 -33 -33 -33 -33 -32 -32 -32 -31 -31 -30 -30 -30 -29 -29 -29 -29 -28 -28 -27 -27 -27 -27
-34 -34 -34 -34 -34 -34 -34 -33 -33 -33 -33 -33 -33 -33 -33 -33 -33 -33 -33 -33 -33 -33 -33 -33 -33 -33 -33 -33 -33 -33 -33 -33 -34 -34 -34 -34 -34 -34 -34 -34 -34 -34 -34 -33 -33 -33 -33 -32 -32 -31 -31 -30 -30 -30 -29 -29 -29 -29 -29 -28 -27 -27 -27
-34 -34 -34 -34 -34 -34 -34 -34 -33 -33 -33 -33 -33 -33 -33 -33 -33 -33 -33 -33 -33 -33 -33 -32 -32 -33 -33 -33 -33 -33 -33 -33 -34 -34 -34 -34 -34 -34 -34 -34 -34 -34 -34 -34 -34 -33 -33 -33 -33 -32 -32 -31 -31 -30 -30 -30 -29 -29 -29 -29 -28 -28 -27
-35 -35 -34 -34 -34 -34 -34 -34 -34 -34 -34 -33 -33 -33 -33 -33 -33 -33 -33 -33 -33 -33 -33 -32 -32 -33 -33 -33 -33 -33 -33 -33 -33 -33 -33 -34 -34 -34 -34 -34 -34 -34 -34 -34 -34 -34 -34 -33 -33 -33 -32 -32 -31 -31 -30 -30 -29 -29 -29 -29 -29 -28 -28
-35 -35 -35 -35 -35 -35 -35 -34 -34 -34 -34 -34 -34 -34 -33 -33 -33 -33 -33 -33 -33 -33 -33 -33 -33 -33 -33 -33 -33 -33 -33 -33 -33 -33 -33 -33 -33 -33 -34 -34 -34 -34 -34 -34 -34 -34 -34 -34 -33 -33 -33 -32 -32 -32 -31 -30 -30 -29 -29 -29 -29 -29 -29
-35 -35 -35 -35 -35 -35 -35 -35 -35 -35 -34 -34 -34 -34 -34 -34 -33 -33 -33 -33 -33 -33 -33 -33 -33 -33 -33 -33 -33 -33 -33 -33 -33 -33 -33 -33 -33 -33 -34 -34 -34 -34 -34 -34 -34 -34 -34 -34 -34 -33 -33 -33 -33 -32 -32 -31 -31 -30 -30 -30 -29 -29 -29
-34 -35 -35 -35 -35 -35 -35 -35 -35 -35 -35 -34 -34 -34 -34 -34 -34 -34 -33 -33 -33 -33 -33 -33 -33 -33 -33 -33 -33 -33 -33 -33 -33 -33 -33 -33 -33 -33 -34 -34 -33 -33 -33 -34 -34 -34 -34 -34 -34 -34 -33 -33 -33 -33 -32 -32 -32 -31 -31 -30 -30 -30 -29
-34 -34 -34 -34 -35 -35 -35 -35 -35 -35 -35 -35 -35 -34 -34 -34 -34 -34 -34 -34 -33 -33 -33 -33 -33 -33 -33 -33 -33 -33 -33 -33 -33 -33 -33 -33 -33 -33 -33 -33 -33 -33 -33 -33 -34 -34 -34 -34 -34 -34 -34 -34 -33 -33 -33 -33 -32 -32 -32 -32 -31 -31 -30
-34 -34 -34 -34 -34 -34 -34 -35 -35 -35 -35 -35 -35 -35 -35 -34 -34 -34 -34 -34 -34 -34 -34 -34 -34 -34 -34 -33 -33 -33 -33 -33 -33 -33 -33 -33 -33 -33 -33 -33 -33 -33 -33 -33 -34 -34 -34 -34 -34 -34 -34 -34 -34 -34 -34 -33 -33 -33 -33 -33 -33 -32 -32
-34 -34 -34 -34 -34 -34 -34 -34 -34 -35 -35 -35 -35 -35 -35 -35 -35 -34 -34 -34 -34 -34 -34 -34 -34 -34 -34 -34 -34 -34 -34 -34 -33 -33 -33 -33 -34 -34 -34 -33 -33 -33 -33 -34 -34 -34 -34 -34 -34 -34 -34 -34 -34 -34 -34 -34 -34 -34 -34 -34 -34 -34 -34
-34 -34 -34 -34 -34 -34 -34 -34 -34 -34 -34 -35 -35 -35 -35 -35 -35 -35 -35 -35 -35 -35 -34 -34 -34 -34 -34 -34 -34 -34 -34 -34 -34 -33 -33 -33 -34 -34 -34 -34 -33 -33 -34 -34 -34 -34 -34 -34 -34 -34 -34 -35 -35 -35 -35 -35 -35 -35 -35 -35 -35 -35 -35
-33 -33 -33 -33 -34 -34 -34 -34 -34 -34 -34 -34 -35 -35 -35 -35 -35 -35 -35 -35 -35 -35 -34 -34 -34 -34 -34 -34 -34 -34 -34 -34 -34 -34 -34 -34 -34 -34 -34 -34 -34 -34 -34 -34 -34 -34 -34 -34 -34 -34 -35 -35 -35 -35 -35 -35 -35 -35 -35 -35 -35 -35 -35
-33 -33 -33 -33 -33 -34 -34 -34 -34 -34 -34 -34 -34 -35 -34 -34 -35 -34 -34 -34 -34 -34 -34 -34 -34 -34 -34 -34 -34 -34 -34 -34 -34 -34 -34 -34 -34 -34 -34 -34 -34 -34 -34 -34 -34 -34 -34 -34 -34 -34 -35 -35 -35 -35 -35 -35 -35 -35 -35 -35 -35 -35 -35
-33 -33 -33 -33 -33 -33 -34 -34 -34 -34 -34 -34 -34 -34 -34 -34 -34 -34 -34 -34 -34 -34 -34 -34 -34 -34 -34 -34 -34 -34 -34 -34 -34 -34 -34 -34 -34 -34 -34 -34 -34 -34 -34 -34 -34 -34 -34 -34 -34 -34 -35 -35 -35 -35 -35 -35 -35 -35 -35 -35 -35 -35 -35
-33 -33 -33 -33 -33 -33 -33 -33 -33 -34 -34 -34 -34 -34 -34 -34 -34 -34 -34 -34 -34 -34 -34 -34 -34 -34 -34 -34 -34 -34 -34 -33 -33 -34 -34 -34 -34 -34 -34 -34 -34 -34 -34 -34 -34 -34 -34 -35 -35 -35 -35 -35 -35 -35 -35 -35 -35 -35 -35 -35 -35 -35 -35
-33 -33 -33 -33 -33 -33 -33 -33 -33 -33 -33 -33 -34 -34 -34 -34 -34 -34 -34 -34 -34 -34 -34 -34 -34 -34 -34 -34 -33 -33 -33 -33 -33 -33 -33 -33 -34 -34 -34 -34 -34 -34 -34 -34 -34 -34 -35 -35 -35 -35 -35 -35 -35 -35 -35 -35 -35 -35 -35 -35 -35 -35 -35
-33 -33 -33 -33 -33 -33 -33 -33 -33 -33 -33 -33 -33 -33 -34 -34 -33 -33 -33 -33 -33 -33 -34 -34 -34 -33 -33 -33 -33 -33 -33 -33 -33 -33 -33 -33 -33 -34 -34 -34 -34 -34 -34 -34 -34 -35 -35 -35 -35 -35 -35 -35 -35 -35 -35 -35 -35 -35 -35 -35 -35 -35 -35
-33 -33 -33 -33 -33 -33 -33 -33 -33 -33 -33 -33 -33 -33 -33 -33 -33 -33 -33 -33 -33 -33 -33 -33 -33 -33 -33 -33 -33 -33 -33 -33 -33 -33 -33 -33 -33 -33 -33 -34 -34 -34 -34 -35 -35 -35 -35 -35 -35 -35 -35 -35 -35 -35 -35 -35 -35 -35 -35 -35 -35 -35 -35
-33 -33 -33 -33 -33 -33 -33 -33 -33 -33 -33 -33 -33 -33 -33 -33 -33 -33 -33 -33 -33 -33 -33 -33 -33 -33 -33 -33 -33 -33 -33 -33 -33 -33 -33 -33 -33 -33 -33 -34 -34 -34 -34 -35 -35 -35 -35 -35 -35 -35 -35 -36 -36 -36 -36 -36 -36 -36 -36 -35 -35 -35 -35
-33 -33 -33 -33 -33 -33 -33 -33 -33 -33 -33 -33 -33 -33 -33 -33 -34 -34 -34 -33 -33 -33 -33 -33 -33 -33 -33 -32 -32 -32 -33 -33 -33 -33 -33 -33 -33 -33 -33 -33 -34 -34 -34 -35 -35 -35 -36 -36 -36 -36 -36 -36 -36 -36 -36 -36 -36 -36 -36 -36 -36 -36 -36
-33 -33 -33 -33 -33 -33 -33 -33 -33 -33 -33 -33 -33 -33 -33 -33 -33 -33 -33 -33 -33 -33 -33 -33 -33 -33 -33 -32 -32 -32 -32 -32 -32 -32 -33 -33 -33 -33 -33 -33 -34 -34 -34 -35 -35 -35 -36 -36 -36 -36 -36 -36 -36 -36 -36 -36 -36 -36 -36 -36 -36 -36 -36
-33 -33 -33 -33 -33 -33 -33 -33 -33 -33 -33 -33 -33 -33 -33 -33 -33 -33 -33 -33 -33 -33 -33 -33 -33 -33 -33 -32 -32 -32 -32 -32 -32 -32 -32 -33 -33 -33 -33 -33 -33 -34 -34 -34 -35 -35 -36 -36 -36 -36 -36 -36 -36 -36 -36 -36 -36 -36 -36 -36 -36 -36 -36
-33 -33 -33 -33 -33 -33 -33 -33 -33 -33 -33 -33 -32 -32 -33 -33 -33 -33 -33 -33 -33 -33 -33 -33 -33 -33 -32 -32 -32 -32 -32 -32 -32 -32 -32 -32 -32 -33 -33 -33 -33 -33 -34 -34 -35 -35 -35 -36 -36 -36 -36 -36 -36 -36 -36 -36 -36 -36 -36 -36 -36 -36 -36
Height
5276 5278 5279 5282 5284 5286 5287 5289 5290 5292 5294 5296 5297 5299 5301 5302 5303 5304 5305 5306 5307 5309 5310 5312 5314 5316 5320 5322 5325 5331 5336 5342 5349 5356 5362 5369 5378 5386 5393 5402 5410 5423 5440 5452 5458 5465 5472 5477 5484 5490 5498 5506 5511 5517 5522 5526 5530 5534 5538 5543 5547 5550 5553
5272 5274 5276 5278 5280 5282 5283 5285 5286 5288 5290 5292 5293 5295 5296 5297 5298 5300 5301 5302 5303 5305 5305 5307 5309 5311 5314 5315 5318 5323 5328 5333 5339 5344 5350 5357 5365 5373 5381 5389 5397 5408 5423 5435 5443 5452 5459 5465 5472 5479 5487 5496 5502 5507 5512 5516 5520 5524 5528 5534 5538 5541 5545
5268 5270 5272 5274 5276 5278 5280 5281 5283 5285 5286 5288 5290 5291 5292 5293 5294 5295 5297 5298 5299 5300 5301 5303 5305 5307 5309 5310 5313 5317 5320 5325 5330 5334 5340 5347 5354 5362 5370 5378 5385 5394 5407 5418 5428 5437 5445 5452 5459 5467 5475 5484 5490 5495 5499 5504 5510 5514 5519 5524 5528 5532 5536
5264 5266 5269 5271 5273 5275 5277 5278 5280 5281 5283 5285 5286 5287 5288 5289 5290 5292 5293 5294 5295 5296 5297 5299 5301 5303 5304 5305 5307 5311 5314 5318 5322 5326 5332 5338 5344 5351 5359 5368 5374 5382 5392 5403 5412 5421 5430 5439 5446 5454 5462 5469 5477 5482 5488 5493 5498 5503 5508 5513 5518 5522 5526
5260 5263 5266 5268 5270 5272 5274 5275 5277 5278 5280 5281 5282 5284 5285 5286 5287 5288 5289 5290 5291 5293 5294 5295 5297 5299 5300 5301 5303 5307 5310 5313 5317 5320 5325 5330 5336 5343 5350 5358 5365 5373 5381 5389 5397 5407 5416 5424 5432 5440 5448 5456 5464 5471 5476 5481 5486 5492 5497 5502 5507 5512 5516
5257 5260 5263 5266 5268 5270 5271 5273 5274 5276 5277 5278 5280 5281 5282 5284 5285 5285 5286 5287 5288 5289 5290 5292 5293 5295 5296 5298 5301 5303 5306 5309 5312 5315 5319 5323 5329 5335 5341 5347 5355 5363 5371 5378 5385 5393 5402 5410 5418 5427 5435 5443 5451 5458 5464 5470 5475 5481 5486 5491 5497 5501 5505
5256 5259 5261 5264 5266 5267 5269 5271 5272 5274 5275 5276 5278 5279 5280 5281 5282 5282 5283 5284 5285 5286 5287 5289 5290 5292 5293 5296 5298 5301 5303 5306 5308 5311 5314 5318 5322 5327 5331 5337 5345 5353 5361 5368 5374 5381 5388 5397 5405 5413 5421 5429 5436 5443 5450 5457 5463 5470 5476 5482 5487 5491 5495
5255 5258 5260 5262 5264 5266 5267 5269 5270 5272 5273 5274 5276 5276 5277 5278 5278 5279 5280 5281 5282 5283 5284 5286 5287 5289 5291 5293 5295 5298 5300 5302 5305 5307 5310 5313 5317 5320 5325 5330 5337 5343 5350 5357 5364 5370 5377 5385 5392 5399 5407 5415 5421 5429 5439 5447 5455 5462 5468 5473 5477 5481 5485
5255 5257 5259 5261 5263 5264 5266 5267 5269 5270 5271 5272 5273 5274 5274 5275 5275 5276 5277 5278 5279 5280 5282 5283 5285 5286 5288 5290 5292 5294 5296 5299 5301 5304 5306 5309 5312 5315 5320 5324 5329 5335 5341 5348 5354 5360 5366 5373 5380 5386 5394 5402 5411 5421 5431 5438 5444 5451 5457 5462 5466 5470 5473
5255 5257 5259 5260 5262 5263 5265 5266 5267 5268 5269 5270 5271 5271 5272 5272 5273 5273 5274 5275 5276 5277 5279 5280 5282 5284 5285 5287 5289 5291 5293 5295 5298 5300 5303 5306 5308 5311 5315 5318 5323 5328 5333 5339 5344 5350 5356 5363 5370 5377 5385 5393 5402 5412 5419 5424 5430 5437 5444 5449 5454 5458 5463
5256 5257 5258 5260 5261 5262 5263 5264 5265 5266 5267 5268 5268 5269 5269 5270 5270 5271 5271 5272 5273 5274 5276 5278 5279 5281 5282 5284 5286 5288 5290 5292 5295 5297 5300 5302 5305 5308 5310 5313 5317 5321 5326 5330 5335 5341 5346 5353 5360 5368 5376 5383 5391 5398 5404 5411 5418 5424 5429 5435 5441 5448 5454
5256 5257 5258 5259 5260 5261 5262 5263 5264 5264 5265 5266 5266 5266 5267 5267 5267 5268 5269 5269 5270 5272 5273 5275 5276 5278 5280 5282 5284 5285 5287 5290 5292 5294 5297 5299 5302 5304 5306 5309 5312 5315 5319 5323 5327 5332 5337 5345 5353 5359 5366 5373 5381 5387 5392 5398 5405 5409 5415 5423 5430 5437 5444
5257 5258 5258 5259 5259 5260 5260 5261 5262 5262 5263 5263 5263 5264 5264 5264 5265 5265 5266 5267 5268 5269 5270 5272 5273 5275 5277 5279 5281 5283 5285 5287 5289 5291 5294 5296 5298 5300 5302 5305 5307 5310 5313 5316 5321 5325 5331 5339 5345 5351 5358 5365 5370 5375 5380 5385 5391 5397 5404 5411 5418 5426 5433
5257 5258 5258 5258 5258 5258 5259 5259 5260 5260 5260 5261 5261 5261 5261 5261 5262 5262 5263 5264 5265 5266 5268 5269 5270 5272 5274 5276 5278 5280 5282 5284 5286 5288 5290 5292 5295 5296 5298 5300 5303 5305 5308 5311 5315 5320 5325 5331 5335 5341 5348 5353 5358 5362 5367 5373 5380 5386 5393 5400 5406 5413 5418
5257 5257 5257 5257 5257 5257 5257 5257 5257 5257 5257 5258 5258 5258 5258 5258 5259 5259 5260 5261 5262 5264 5265 5266 5268 5270 5271 5273 5275 5277 5279 5281 5283 5285 5287 5289 5291 5293 5295 5296 5299 5301 5304 5307 5310 5314 5318 5322 5325 5330 5336 5340 5345 5350 5356 5361 5368 5375 5380 5386 5391 5397 5402
5257 5256 5256 5255 5255 5255 5255 5254 5254 5254 5254 5254 5254 5255 5255 5255 5256 5257 5257 5258 5259 5261 5262 5264 5266 5268 5269 5270 5272 5274 5276 5277 5279 5281 5283 5285 5288 5290 5292 5294 5295 5297 5299 5302 5305 5308 5311 5314 5317 5321 5325 5329 5334 5338 5343 5349 5355 5361 5367 5374 5380 5386 5392
5257 5256 5255 5254 5254 5253 5253 5252 5252 5251 5251 5251 5251 5251 5252 5252 5253 5254 5255 5256 5257 5258 5259 5261 5263 5265 5266 5268 5270 5271 5273 5274 5275 5277 5280 5282 5284 5286 5289 5291 5292 5294 5296 5298 5301 5303 5305 5307 5310 5313 5317 5320 5323 5327 5332 5337 5343 5351 5358 5365 5371 5378 5384
5257 5256 5255 5254 5253 5252 5251 5251 5250 5250 5249 5249 5248 5248 5249 5249 5250 5251 5252 5253 5254 5255 5257 5258 5260 5261 5263 5265 5266 5268 5269 5271 5272 5274 5276 5279 5281 5283 5286 5288 5289 5290 5292 5294 5296 5298 5300 5302 5304 5306 5309 5312 5314 5318 5322 5327 5334 5341 5348 5353 5359 5366 5373
5257 5256 5254 5253 5252 5251 5250 5249 5248 5248 5247 5247 5246 5246 5246 5247 5247 5248 5249 5250 5251 5253 5254 5255 5257 5258 5260 5261 5263 5264 5266 5268 5269 5272 5274 5276 5278 5280 5282 5284 5285 5286 5288 5290 5292 5293 5295 5297 5298 5300 5302 5305 5307 5310 5314 5319 5324 5330 5335 5340 5346 5353 5359
5258 5256 5255 5253 5252 5250 5249 5248 5247 5246 5245 5245 5245 5245 5245 5245 5245 5246 5246 5247 5249 5250 5251 5252 5254 5255 5257 5258 5259 5261 5263 5264 5266 5269 5271 5272 5275 5277 5278 5279 5281 5282 5284 5286 5287 5289 5291 5292 5294 5295 5296 5299 5301 5304 5307 5311 5315 5319 5324 5329 5335 5341 5346
5257 5256 5255 5253 5252 5250 5249 5248 5247 5245 5244 5243 5242 5243 5243 5243 5244 5244 5245 5245 5246 5247 5248 5250 5251 5253 5254 5255 5257 5258 5260 5261 5263 5265 5267 5269 5271 5273 5274 5275 5277 5279 5280 5282 5283 5285 5286 5288 5290 5291 5292 5294 5296 5298 5300 5303 5307 5311 5315 5319 5324 5329 5335
5257 5256 5255 5253 5252 5250 5249 5248 5247 5245 5244 5242 5241 5241 5241 5242 5242 5243 5243 5244 5245 5246 5247 5248 5249 5251 5252 5253 5254 5256 5257 5258 5260 5261 5264 5266 5268 5268 5269 5271 5273 5274 5275 5277 5279 5280 5282 5284 5286 5287 5288 5290 5291 5292 5294 5297 5300 5303 5306 5310 5315 5320 5324
5257 5256 5254 5253 5252 5251 5249 5248 5247 5245 5244 5243 5241 5240 5240 5241 5241 5242 5242 5243 5243 5244 5245 5246 5247 5248 5249 5251 5252 5253 5254 5255 5256 5257 5259 5262 5263 5264 5265 5267 5268 5269 5271 5273 5274 5276 5278 5280 5282 5283 5284 5286 5287 5288 5289 5291 5294 5296 5300 5304 5309 5314 5317
5258 5256 5255 5254 5253 5251 5250 5249 5247 5246 5245 5244 5243 5242 5241 5241 5241 5241 5241 5242 5242 5243 5244 5244 5245 5246 5247 5248 5249 5250 5251 5251 5253 5254 5255 5257 5258 5259 5261 5262 5263 5265 5267 5269 5270 5272 5274 5276 5278 5279 5280 5282 5283 5283 5284 5286 5289 5291 5295 5300 5304 5308 5311
5259 5257 5255 5254 5253 5252 5251 5249 5248 5247 5246 5244 5244 5243 5242 5242 5242 5242 5242 5242 5242 5243 5243 5244 5245 5245 5246 5246 5247 5247 5248 5249 5249 5250 5251 5252 5254 5255 5256 5257 5259 5261 5262 5264 5266 5268 5269 5271 5273 5274 5276 5277 5278 5279 5280 5282 5284 5287 5290 5294 5298 5302 5305
5261 5258 5257 5255 5254 5252 5251 5250 5248 5247 5246 5245 5244 5244 5243 5243 5243 5242 5243 5243 5243 5243 5243 5244 5244 5244 5245 5245 5245 5246 5246 5246 5247 5247 5248 5249 5250 5251 5252 5253 5255 5256 5258 5260 5261 5263 5264 5266 5267 5269 5270 5271 5273 5275 5277 5278 5280 5282 5285 5288 5292 5295 5299
5262 5260 5258 5256 5255 5253 5252 5250 5249 5248 5247 5246 5245 5244 5244 5244 5243 5243 5243 5243 5243 5243 5243 5243 5243 5244 5244 5244 5244 5244 5244 5245 5245 5245 5246 5246 5247 5248 5249 5250 5251 5252 5253 5254 5256 5257 5258 5260 5261 5263 5264 5266 5268 5270 5272 5275 5277 5278 5280 5283 5286 5289 5293
5264 5262 5260 5258 5256 5254 5252 5251 5250 5248 5247 5246 5246 5245 5245 5244 5244 5244 5244 5243 5243 5243 5243 5243 5243 5243 5242 5242 5242 5242 5242 5242 5243 5243 5243 5244 5245 5246 5246 5247 5248 5249 5249 5250 5251 5252 5254 5255 5256 5258 5259 5261 5263 5265 5268 5270 5272 5274 5276 5278 5280 5284 5287
5265 5263 5261 5259 5257 5255 5253 5252 5251 5249 5248 5247 5246 5246 5245 5245 5244 5244 5244 5244 5243 5243 5243 5242 5242 5241 5241 5241 5241 5240 5240 5240 5240 5240 5241 5241 5242 5242 5243 5244 5245 5246 5246 5247 5248 5249 5250 5251 5252 5253 5255 5256 5258 5260 5262 5265 5267 5269 5271 5273 5276 5279 5282
5265 5263 5261 5259 5257 5255 5254 5253 5251 5250 5249 5248 5247 5246 5246 5245 5245 5244 5244 5244 5243 5243 5242 5242 5241 5241 5240 5239 5239 5239 5238 5238 5238 5238 5238 5238 5239 5239 5240 5240 5241 5242 5243 5244 5244 5245 5246 5247 5248 5249 5250 5252 5253 5255 5257 5259 5262 5264 5266 5269 5271 5274 5277
5264 5262 5260 5259 5257 5255 5254 5253 5251 5250 5249 5248 5248 5247 5246 5246 5245 5244 5244 5243 5243 5242 5242 5241 5241 5240 5239 5238 5238 5237 5237 5236 5236 5236 5236 5236 5236 5237 5237 5237 5238 5239 5239 5240 5241 5241 5242 5243 5244 5245 5246 5247 5249 5250 5252 5254 5256 5258 5261 5263 5266 5269 5271
5263 5261 5259 5257 5256 5254 5253 5252 5251 5250 5249 5248 5248 5247 5246 5246 5245 5244 5244 5243 5242 5242 5241 5241 5240 5239 5238 5237 5237 5236 5236 5235 5235 5234 5234 5234 5234 5234 5234 5235 5235 5236 5236 5236 5237 5237 5238 5239 5240 5241 5242 5243 5244 5246 5247 5249 5251 5253 5256 5258 5261 5263 5265
5261 5259 5257 5255 5254 5252 5251 5250 5249 5249 5248 5247 5247 5246 5245 5245 5244 5243 5243 5242 5241 5241 5240 5240 5239 5238 5238 5237 5236 5235 5235 5234 5234 5233 5233 5232 5232 5232 5232 5232 5233 5233 5233 5233 5233 5233 5234 5234 5235 5236 5237 5239 5240 5241 5243 5244 5246 5248 5251 5253 5255 5257 5259
5258 5256 5254 5252 5251 5250 5249 5248 5248 5247 5247 5246 5245 5245 5244 5243 5243 5242 5241 5241 5240 5240 5239 5239 5238 5238 5237 5236 5236 5235 5234 5233 5233 5232 5231 5231 5231 5230 5230 5230 5230 5230 5230 5230 5230 5230 5230 5230 5231 5231 5233 5234 5235 5237 5238 5240 5241 5243 5246 5247 5249 5251 5253
5255 5253 5251 5250 5248 5248 5247 5246 5246 5245 5245 5245 5244 5243 5243 5242 5241 5241 5240 5240 5239 5239 5239 5238 5238 5237 5237 5236 5235 5234 5234 5233 5232 5231 5231 5230 5230 5229 5229 5228 5228 5228 5228 5228 5228 5227 5227 5226 5227 5227 5228 5229 5231 5232 5233 5235 5236 5238 5240 5242 5244 5246 5248
5253 5251 5249 5248 5247 5246 5245 5244 5244 5243 5243 5243 5242 5242 5242 5241 5240 5240 5239 5239 5238 5238 5238 5237 5237 5237 5236 5236 5235 5234 5233 5232 5232 5231 5230 5230 5229 5229 5228 5227 5227 5227 5227 5226 5226 5226 5225 5224 5224 5224 5225 5226 5227 5228 5229 5231 5232 5234 5236 5237 5239 5241 5242
Wind_Speed
28 30 30 29 28 27 28 29 27 25 25 26 25 24 24 25 26 27 28 30 31 33 36 41 47 53 58 63 69 74 80 87 94 101 105 109 112 114 116 118 118 117 113 110 110 107 105 104 101 98 94 92 88 84 81 81 82 83 83 82 81 81 81
29 29 30 30 28 27 28 28 26 25 25 24 23 23 24 25 25 26 27 28 29 30 32 35 38 42 47 52 58 63 69 75 81 89 95 100 104 108 111 113 116 117 115 112 111 110 107 105 103 100 97 94 91 87 85 83 80 79 79 78 79 81 83
31 30 29 29 28 27 28 27 25 24 23 22 22 24 25 25 25 25 25 27 28 29 30 31 33 35 38 42 47 52 57 63 68 76 84 90 95 100 105 108 111 114 115 113 112 112 110 108 105 102 100 98 96 92 88 87 85 82 81 79 78 79 83
32 30 28 27 27 27 26 26 24 23 22 22 23 26 26 26 25 25 25 26 27 28 29 29 30 31 33 36 41 45 48 52 57 64 71 79 86 92 98 103 105 108 111 113 112 112 112 110 108 105 103 101 101 98 93 89 88 85 83 82 81 80 82
31 29 26 25 25 25 25 25 24 23 22 23 25 26 26 25 24 24 25 26 27 27 28 28 29 30 32 34 36 38 41 44 48 54 60 67 75 82 90 96 101 102 105 108 111 112 113 112 110 108 106 104 104 103 99 93 91 90 86 84 84 83 83
28 26 24 23 23 24 24 24 23 22 23 25 25 24 23 22 22 22 24 25 26 27 27 27 28 29 31 32 33 33 35 37 41 45 51 57 64 72 79 88 95 99 101 103 105 109 111 112 111 110 109 107 106 107 105 99 95 95 93 90 87 86 87
23 22 21 21 23 24 23 22 22 22 24 24 23 22 22 21 21 21 22 24 25 26 27 27 28 29 30 30 30 30 31 33 36 39 44 49 55 62 70 79 87 94 99 101 101 104 107 109 110 110 110 109 109 110 109 106 101 99 98 95 91 89 89
18 19 19 20 22 22 22 21 21 22 23 22 22 22 21 21 20 20 21 23 24 26 27 28 29 29 30 30 30 30 30 32 34 36 39 43 47 54 61 69 77 85 93 99 101 103 105 107 108 109 109 109 109 110 111 109 106 103 100 95 91 90 90
15 16 17 19 20 21 20 20 20 21 22 22 22 22 21 20 19 19 21 22 24 25 27 28 29 30 30 31 31 31 31 32 34 36 37 39 42 47 53 60 67 75 83 92 98 103 105 107 108 109 109 108 107 106 107 108 108 106 101 95 91 91 92
12 14 16 18 19 19 19 20 21 22 22 22 22 21 20 19 19 19 20 22 23 24 25 27 28 30 30 31 31 32 32 33 34 35 35 37 39 42 46 52 59 66 73 81 89 97 103 106 107 108 108 108 106 102 101 103 106 107 105 99 93 90 90
10 12 15 16 17 18 19 20 21 22 22 22 21 21 20 19 19 19 19 21 22 23 24 26 27 29 30 30 30 31 32 32 32 32 33 34 35 37 41 46 52 58 65 72 79 86 94 101 105 107 107 107 106 104 102 100 100 104 107 106 100 94 89
9 11 13 15 17 18 19 21 21 22 22 21 21 21 20 20 19 19 19 20 22 23 24 25 26 27 27 28 29 30 30 30 30 30 30 31 32 34 37 41 45 51 57 63 70 77 84 91 97 103 105 106 105 105 105 103 100 99 102 107 108 105 98
8 10 12 14 16 18 19 20 21 22 22 21 21 21 20 20 20 19 18 19 22 24 25 25 25 25 25 25 27 28 29 29 29 29 29 29 30 32 34 37 40 45 50 55 61 67 73 79 86 93 99 103 105 105 106 106 106 103 101 102 106 109 108
6 9 11 13 15 17 18 20 21 22 22 22 22 21 21 21 20 20 18 18 20 24 26 26 26 25 24 25 26 27 27 27 28 29 29 30 31 32 34 36 38 41 44 48 52 57 62 68 75 82 89 96 101 104 105 106 107 107 106 103 101 104 107
6 8 10 12 13 15 17 18 20 22 22 23 23 22 22 21 21 20 19 18 19 22 25 27 26 25 25 25 26 26 26 26 28 30 31 31 31 32 33 34 35 37 40 42 45 49 53 58 64 72 80 87 94 99 103 106 107 108 110 109 107 104 104
7 7 8 10 12 13 15 17 19 21 22 23 23 22 22 21 21 21 20 19 19 20 23 26 26 25 26 26 26 27 27 27 28 30 32 33 33 32 31 30 31 33 35 37 39 43 46 51 56 62 69 77 85 92 98 103 106 108 109 111 112 111 109
10 9 9 9 10 11 13 14 16 17 18 19 20 20 20 20 20 21 20 20 20 20 21 23 25 25 26 27 27 27 27 28 29 30 32 33 34 33 32 31 31 31 32 33 34 36 39 44 49 55 60 67 74 82 90 97 101 104 106 108 110 111 112
14 12 11 10 10 11 11 12 13 14 15 16 17 17 18 18 19 20 21 21 21 21 21 22 23 25 26 26 28 29 29 29 29 30 30 31 32 33 33 32 33 33 32 32 31 32 33 36 41 47 53 59 65 72 79 86 92 97 101 104 107 109 110
16 15 14 13 11 11 10 10 11 12 13 13 14 15 15 16 16 17 19 20 21 21 21 21 22 24 25 26 28 30 30 30 31 30 30 30 30 31 31 32 33 33 33 32 31 30 30 31 34 39 45 51 57 63 69 74 81 87 92 97 101 105 107
15 15 14 15 14 13 11 10 10 10 10 11 12 13 13 13 13 13 15 17 18 20 20 21 22 23 25 26 28 30 31 32 32 31 31 30 30 29 31 32 33 33 33 33 32 31 30 29 29 32 36 42 49 55 60 65 70 75 81 86 92 97 101
16 14 14 14 15 14 13 13 12 12 11 8 9 11 11 11 10 10 11 12 13 15 17 18 20 22 25 26 28 28 29 31 31 32 31 31 30 30 32 33 33 33 34 33 33 32 31 29 27 27 28 33 38 45 51 56 60 64 68 74 79 85 90
16 14 13 13 14 14 14 13 13 13 13 11 6 5 8 9 8 8 7 8 9 10 12 14 17 19 21 23 25 26 27 28 29 30 30 29 29 31 32 33 33 34 35 34 34 33 32 30 28 26 25 25 29 34 40 46 50 54 58 63 67 70 76
17 15 13 13 13 14 14 14 14 14 13 13 11 7 2 2 4 5 5 5 6 7 9 11 13 15 17 19 21 22 24 25 27 28 28 27 28 30 31 32 33 34 35 35 35 34 33 31 29 28 26 24 24 26 31 37 43 47 50 54 56 57 60
20 16 14 12 12 13 13 14 14 13 13 12 12 11 8 6 4 3 2 2 3 5 6 8 10 12 13 15 17 19 21 23 24 25 26 26 27 28 30 31 32 33 34 34 35 35 34 33 31 29 28 26 26 26 27 30 36 42 47 51 53 52 51
23 19 15 12 11 11 12 12 12 12 12 12 11 10 9 7 6 6 5 4 3 2 2 3 5 6 8 10 12 14 15 17 19 21 23 25 26 27 29 30 31 32 32 33 33 34 34 34 33 32 30 29 29 29 28 28 30 35 42 51 56 55 52
24 22 19 14 11 10 10 10 10 10 10 10 9 8 8 7 7 7 6 6 5 4 3 3 3 4 5 7 8 10 11 12 13 15 17 18 19 21 23 26 27 29 30 31 32 33 34 34 34 34 33 33 32 31 31 30 30 31 35 45 56 60 56
23 22 21 18 14 12 11 10 9 9 10 9 8 8 8 8 7 7 6 6 6 5 5 5 5 6 6 7 8 9 10 11 12 13 14 14 14 15 17 19 20 22 24 26 29 31 33 34 35 35 36 36 35 34 34 33 33 33 33 38 49 59 60
23 22 22 20 18 15 13 11 9 9 8 8 7 6 6 6 5 5 5 5 5 5 5 5 6 6 6 7 8 9 10 11 12 13 14 15 16 16 17 17 18 18 20 21 23 26 29 31 34 36 37 37 37 36 36 36 35 36 36 36 41 50 59
23 23 21 20 19 17 15 13 11 9 7 6 5 5 4 3 3 3 4 4 4 5 5 6 7 8 8 8 8 8 9 11 11 12 13 14 16 17 19 20 20 20 21 22 22 24 25 27 29 32 34 36 37 38 38 38 38 38 38 38 38 42 49
23 23 22 20 18 16 15 13 12 10 8 6 4 3 2 2 3 3 4 4 5 5 6 6 7 8 9 9 9 8 8 8 9 10 11 11 12 14 16 18 20 21 22 23 24 25 26 26 27 28 30 31 34 36 37 38 39 40 40 41 40 40 42
23 23 22 21 18 16 14 12 11 10 9 7 6 5 4 5 5 4 4 4 4 5 5 6 7 7 9 9 9 8 7 7 7 8 9 9 9 10 11 13 15 17 20 23 25 26 27 27 28 28 29 30 31 33 34 35 37 39 40 42 42 43 43
24 24 23 22 19 16 13 12 10 10 9 8 8 8 8 8 7 6 5 5 5 5 5 5 6 8 9 9 9 8 7 6 5 5 6 7 8 9 10 11 12 13 15 18 23 25 27 28 29 29 29 30 31 31 32 33 34 35 37 38 40 41 43
25 25 24 23 19 15 13 11 10 10 9 9 9 8 7 7 7 7 7 7 6 6 5 5 6 7 8 9 9 8 7 6 5 4 5 6 7 8 9 11 12 12 11 12 16 20 24 27 28 29 30 30 31 31 32 33 34 34 35 35 36 38 40
26 25 24 21 17 13 11 11 11 10 9 9 9 8 7 5 5 6 7 7 6 5 5 5 6 7 7 8 9 8 7 6 5 5 5 5 6 6 7 9 10 11 12 11 11 13 18 23 26 28 30 31 31 31 32 34 35 35 35 36 37 38 38
24 22 21 18 14 11 10 10 10 10 10 10 10 9 7 6 6 7 7 6 5 5 5 6 6 7 7 8 8 8 7 6 6 6 6 6 6 6 6 6 7 8 10 10 9 9 11 15 20 24 27 29 30 31 32 33 34 35 36 37 38 39 39
20 18 16 15 13 11 9 9 10 11 11 11 11 11 9 8 8 8 8 6 5 5 5 6 6 7 7 7 8 7 7 6 6 6 5 6 6 6 5 5 5 5 6 7 7 6 6 6 10 15 19 22 24 26 28 29 31 32 33 35 36 38 38
Wind_Direction
243 241 241 242 242 244 246 249 251 252 251 251 252 251 249 249 249 249 249 249 248 247 245 244 242 241 240 239 238 236 235 234 232 231 231 231 229 228 229 230 232 233 232 230 230 231 231 231 232 231 230 230 231 233 236 237 237 238 239 239 238 238 239
245 242 242 242 243 244 247 250 252 252 253 255 258 258 256 253 251 249 247 247 247 246 245 244 243 242 241 240 238 237 236 234 233 232 231 230 229 228 227 227 229 231 231 230 229 229 230 230 230 230 228 228 229 230 232 234 237 238 239 240 240 238 237
244 243 241 241 241 243 247 251 253 254 256 258 260 260 258 256 252 248 246 245 245 244 244 243 242 240 239 238 237 236 235 234 233 233 232 231 230 228 227 226 226 227 229 228 228 228 228 228 228 229 228 226 226 228 229 230 232 236 238 238 238 238 237
241 241 240 239 240 243 247 251 253 254 255 255 255 255 256 254 251 246 243 242 242 241 241 240 239 237 235 234 234 233 233 233 233 233 232 231 230 229 227 226 225 225 226 227 226 226 227 228 227 227 227 225 225 226 227 227 229 232 236 237 236 235 235
238 238 237 237 238 241 246 250 251 252 252 252 254 255 256 254 251 246 242 239 238 238 238 236 235 233 231 232 232 231 230 230 231 232 232 232 230 229 228 227 225 224 225 225 225 225 225 226 227 226 226 225 224 225 226 227 227 229 233 236 236 234 233
235 234 234 235 235 239 245 248 251 251 251 254 258 260 261 258 254 249 243 239 237 236 234 232 230 229 228 229 230 229 227 227 229 230 231 231 231 229 228 227 226 225 224 224 224 224 224 225 226 226 225 225 225 224 226 226 226 228 231 234 237 237 237
230 230 231 231 233 238 243 247 249 250 253 258 263 265 265 261 256 251 245 240 236 233 231 228 226 225 225 225 225 225 224 224 225 228 230 230 230 229 228 228 227 226 225 224 224 224 224 224 225 226 225 225 225 224 225 226 226 228 230 233 237 239 240
221 224 227 229 232 238 243 245 247 249 253 258 261 263 263 261 257 251 246 240 234 232 230 227 224 223 222 221 221 220 222 223 224 226 229 230 229 229 229 229 228 227 226 225 225 225 225 224 224 225 225 225 226 225 225 225 226 227 229 233 236 237 238
215 220 224 227 232 238 241 243 244 247 252 255 257 259 262 262 259 253 246 240 234 230 229 227 225 223 221 220 220 220 222 224 225 227 228 229 230 229 229 229 229 228 228 227 226 226 226 226 225 224 225 225 225 226 226 226 226 226 227 230 233 234 233
216 219 222 227 232 236 239 240 243 246 250 253 256 260 262 263 261 254 246 239 233 229 228 227 226 224 223 222 223 224 226 228 229 229 229 229 230 230 230 230 229 229 229 229 228 228 228 228 227 226 225 225 225 225 226 227 227 226 225 226 229 230 229
217 219 222 227 232 236 237 240 243 247 251 254 258 262 264 264 261 256 247 239 232 227 226 226 227 228 227 227 227 228 230 231 232 232 231 231 231 231 231 231 230 230 230 230 230 230 229 229 229 228 227 226 225 224 224 225 226 227 226 225 225 227 227
222 224 227 230 234 237 239 242 245 248 251 255 259 261 263 263 260 255 249 239 231 225 223 224 228 231 233 233 233 233 235 236 235 234 234 235 235 235 234 233 233 232 231 231 231 231 231 230 230 230 229 228 227 226 225 224 224 225 227 226 225 226 226
239 240 240 241 242 244 245 247 248 250 253 255 258 260 260 259 257 253 248 240 231 225 223 223 226 230 233 235 236 237 238 239 239 237 236 236 238 239 239 237 236 234 233 233 232 233 233 233 232 232 231 230 229 229 228 226 224 223 224 226 226 227 228
258 255 253 253 252 252 252 252 252 253 255 258 260 261 260 257 253 251 247 240 232 227 225 225 225 227 230 233 235 237 239 239 239 237 235 234 235 237 239 238 237 236 236 235 235 234 233 233 233 233 232 232 231 231 230 229 228 226 224 224 225 227 229
286 271 265 262 260 259 258 257 257 258 260 261 262 262 261 257 252 248 247 242 235 230 228 228 228 227 228 230 232 234 236 237 237 234 231 231 232 234 236 236 236 236 236 236 236 236 234 233 233 232 232 232 232 232 232 231 230 229 228 226 225 226 228
327 306 289 278 271 268 265 263 262 262 263 264 264 262 260 256 251 247 246 244 241 236 232 230 230 230 230 230 231 231 232 233 234 233 230 229 230 232 233 233 233 234 235 235 235 236 236 236 234 233 232 232 232 232 232 232 232 231 231 230 229 228 228
347 333 317 303 291 283 277 273 270 268 267 266 265 262 259 255 251 248 246 245 243 241 237 233 232 232 232 233 232 232 231 231 232 233 232 231 231 232 232 232 232 233 234 235 235 236 237 237 237 235 234 233 233 232 232 232 232 232 232 232 232 232 231
5 355 342 328 313 301 293 286 282 277 273 272 269 265 261 256 252 249 248 247 246 243 241 238 235 233 233 233 233 233 232 232 232 233 233 233 233 233 233 233 234 234 235 235 236 237 239 239 239 238 236 235 234 234 233 233 232 232 233 233 233 234 234
10 5 359 353 344 333 321 308 297 286 278 273 272 269 265 259 255 251 249 248 248 245 243 241 237 234 232 231 232 232 232 233 233 234 234 235 234 234 235 235 235 235 235 235 235 236 238 240 241 240 238 237 236 235 235 234 233 232 232 233 233 233 234
7 2 358 357 356 356 353 346 335 318 298 279 268 266 266 262 258 254 250 247 246 245 243 241 238 233 230 229 230 231 232 233 234 234 235 236 236 235 236 236 236 236 236 236 236 237 238 240 242 243 241 239 238 237 236 235 235 234 233 233 233 233 233
3 1 357 354 356 360 2 359 356 352 343 319 279 261 260 261 259 256 254 250 247 245 243 240 238 234 230 230 231 232 233 235 236 236 236 236 237 237 237 237 237 238 239 238 238 238 239 241 243 246 246 243 240 238 237 236 235 235 234 233 233 233 233
357 357 359 359 359 3 5 4 3 5 7 8 353 283 258 258 261 261 257 253 250 247 243 240 238 237 236 235 236 237 238 239 240 240 239 238 237 237 238 238 238 239 239 240 240 241 241 241 243 246 249 248 244 241 238 236 234 233 233 232 233 234 234
1 359 3 6 6 8 10 10 12 14 16 25 34 39 29 248 251 254 250 246 244 243 241 239 237 237 237 237 238 239 240 241 242 243 243 240 239 239 239 239 239 240 240 241 242 242 242 242 242 244 247 249 249 246 241 237 234 233 231 229 229 232 235
12 9 8 10 10 11 13 13 15 17 18 24 35 44 54 67 87 110 138 180 208 222 232 237 239 241 242 242 242 242 242 243 244 245 244 243 241 241 241 240 240 240 241 241 242 243 243 243 242 242 243 246 248 247 244 239 235 234 231 227 224 226 231
19 17 15 14 9 7 12 14 12 12 12 15 22 30 38 47 59 73 84 94 109 133 191 223 237 245 248 249 250 250 249 249 248 248 248 246 245 244 243 242 242 241 240 240 241 242 242 242 242 241 240 240 242 244 245 244 240 237 234 227 223 224 228
19 17 15 15 10 4 5 8 6 3 4 6 10 12 16 24 30 36 40 41 42 37 20 352 315 289 275 264 258 254 252 252 252 251 252 251 249 247 246 245 244 244 242 241 239 239 240 240 240 240 239 238 238 239 241 243 243 242 239 232 226 224 227
17 16 13 13 12 9 5 3 1 1 2 4 7 11 16 23 27 26 24 20 14 6 353 338 322 308 295 284 273 264 256 251 249 249 251 253 251 247 246 246 245 245 244 242 241 239 239 239 239 239 239 238 237 236 236 238 239 239 240 237 231 227 227
9 11 11 10 10 11 10 8 6 10 14 18 24 32 39 40 32 21 12 5 360 355 349 341 332 323 311 296 282 272 264 258 253 250 248 249 249 247 246 246 246 244 242 242 243 242 241 240 240 240 240 240 239 238 236 235 236 236 236 237 235 232 230
360 2 4 4 4 5 7 8 10 16 26 37 48 57 59 52 31 10 4 2 359 357 355 351 343 333 325 316 300 283 272 265 261 257 253 250 248 247 246 247 247 247 245 243 243 242 242 242 242 242 242 242 242 241 240 238 236 236 236 236 236 234 233
351 351 352 354 355 356 357 359 3 7 14 25 39 50 52 26 9 4 1 357 354 351 347 343 339 333 329 326 318 306 291 277 267 262 258 255 251 248 247 249 249 250 249 247 245 242 242 242 242 242 242 243 243 243 243 242 240 238 238 237 236 235 235
343 342 341 341 342 342 344 346 349 353 357 357 356 351 344 345 351 357 354 344 337 333 330 332 337 340 338 333 326 317 305 293 281 271 262 255 249 242 240 243 247 249 250 250 248 246 244 243 243 242 242 243 243 243 242 242 242 241 240 239 238 237 237
334 333 332 331 328 326 327 329 330 334 336 336 336 335 334 334 334 328 321 318 316 316 318 328 340 346 343 337 331 323 309 295 290 288 278 266 256 246 239 237 238 243 248 249 247 246 245 244 243 243 243 243 243 244 244 243 242 242 241 241 240 239 238
326 326 325 325 321 313 309 311 313 315 318 321 327 330 330 328 323 309 298 298 303 309 314 325 337 343 343 338 332 325 314 299 291 293 292 283 271 261 254 247 242 243 250 254 250 245 243 242 242 242 242 242 242 243 244 244 243 242 242 241 240 238 238
322 322 322 322 320 308 297 296 299 301 301 305 313 320 322 316 304 292 288 291 297 306 312 317 323 328 334 337 336 330 317 302 292 290 294 292 284 273 267 260 253 250 253 260 262 255 246 241 239 239 239 240 240 240 242 243 244 243 242 242 241 239 237
321 322 322 322 320 311 296 289 291 291 288 286 293 304 310 304 294 293 296 296 296 301 306 308 310 314 321 329 335 335 328 314 300 292 292 291 290 287 282 274 266 258 255 256 264 270 259 245 239 238 237 237 238 238 239 241 242 243 242 242 242 242 240
323 324 322 320 320 317 305 293 290 287 280 274 278 286 294 297 297 301 307 305 298 297 300 300 301 305 311 318 325 334 341 338 324 311 300 290 284 284 287 286 280 271 263 255 257 270 278 257 238 235 236 237 238 239 240 242 243 244 244 244 244 244 243